DW9750 Weather Reports


time (UTC)temp
C
wind
direction
speed
KPH
gust
KPH
rain 1hr
cm
rain 24hr
cm
rain mn
cm
humidity
%
barometer
mb
20260901140021 24 66 0.0 0.0 0.00 0.00 0.00 87 1014.8
20260901134516 23 75 0.0 0.0 0.00 0.00 0.00 88 1014.7
20260901133018 22 75 0.0 0.0 0.00 0.00 0.00 90 1014.6
20260901131518 21 75 0.0 0.0 0.00 0.00 0.00 90 1014.6
20260901130014 21 75 0.0 0.0 0.00 0.00 0.00 91 1014.5
20260901124512 20 75 0.0 0.0 0.00 0.00 0.00 91 1014.4
20260901123021 20 75 0.0 0.0 0.00 0.00 0.00 90 1014.3
20260901121514 21 75 0.0 0.0 0.00 0.00 0.00 89 1014.2
20260901120007 21 75 0.0 0.0 0.00 0.00 0.00 89 1014.2
20260901114505 21 75 0.0 0.0 0.00 0.00 0.00 88 1014.3
20260901113003 21 75 0.0 0.0 0.00 0.00 0.00 87 1014.2
20260901111501 22 75 0.0 0.0 0.00 0.00 0.00 88 1014.1
20260901110100 22 75 0.0 0.0 0.00 0.00 0.00 90 1013.9
20260901104602 22 75 0.0 0.0 0.00 0.00 0.00 86 1013.9
20260901103101 22 75 0.0 0.0 0.00 0.00 0.00 86 1014.0
20260901101607 22 75 0.0 0.0 0.00 0.00 0.00 85 1014.1
20260901100106 22 75 0.0 0.0 0.00 0.00 0.00 84 1014.0
20260901094554 22 94 0.0 0.0 0.00 0.00 0.00 83 1014.0
20260901093051 23 94 0.0 0.0 0.00 0.00 0.00 82 1014.1
20260901091550 23 71 0.0 1.6 0.00 0.00 0.00 81 1014.3
20260901090046 23 92 0.0 1.6 0.00 0.00 0.00 79 1014.2
20260901084552 23 109 0.0 3.2 0.00 0.00 0.00 78 1014.2
20260901083044 24 89 1.6 3.2 0.00 0.00 0.00 77 1014.1
20260901081543 24 83 0.0 4.8 0.00 0.00 0.00 76 1014.1
20260901080050 24 78 0.0 1.6 0.00 0.00 0.00 74 1014.1
20260901074537 25 78 0.0 4.8 0.00 0.00 0.00 73 1014.0
20260901073045 25 52 3.2 8.0 0.00 0.00 0.00 72 1014.0
20260901071533 25 109 3.2 6.4 0.00 0.00 0.00 70 1014.0
20260901070030 25 80 3.2 6.4 0.00 0.00 0.00 69 1013.9
20260901064529 26 79 0.0 6.4 0.00 0.00 0.00 68 1013.8
20260901063026 26 104 3.2 6.4 0.00 0.00 0.00 67 1013.7
20260901061523 26 100 3.2 9.7 0.00 0.00 0.00 67 1013.6
20260901060035 27 151 4.8 12.9 0.00 0.00 0.00 66 1013.4
20260901054518 27 96 4.8 9.7 0.00 0.00 0.00 67 1013.3
20260901053015 27 171 3.2 11.3 0.00 0.00 0.00 67 1013.2
20260901051514 27 109 3.2 11.3 0.00 0.00 0.00 67 1013.1
20260901050012 27 111 3.2 8.0 0.00 0.00 0.00 66 1012.9
20260901044511 28 153 0.0 8.0 0.00 0.00 0.00 65 1012.9
20260901043010 28 97 3.2 11.3 0.00 0.00 0.00 65 1012.9
20260901041509 28 91 3.2 9.7 0.00 0.00 0.00 64 1012.8
20260901040009 28 121 3.2 8.0 0.00 0.00 0.00 64 1012.8
20260901034508 28 89 3.2 8.0 0.00 0.00 0.00 63 1012.7
20260901033007 28 101 4.8 11.3 0.00 0.00 0.00 61 1012.5
20260901031507 28 110 3.2 8.0 0.00 0.00 0.00 58 1012.4
20260901030005 28 105 1.6 9.7 0.00 0.00 0.00 56 1012.2
20260901024504 29 79 4.8 9.7 0.00 0.00 0.00 54 1012.1
20260901023005 28 80 1.6 4.8 0.00 0.00 0.00 55 1011.9
20260901021508 28 85 0.0 3.2 0.00 0.00 0.00 55 1011.5
20260901020002 29 82 0.0 1.6 0.00 0.00 0.00 54 1011.4
20260901014503 30 73 0.0 3.2 0.00 0.00 0.00 53 1011.2
20260901013001 30 78 1.6 3.2 0.00 0.00 0.00 51 1011.3
20260901011502 31 74 1.6 6.4 0.00 0.00 0.00 50 1011.2
20260901010115 31 93 3.2 6.4 0.00 0.00 0.00 49 1011.0
20260901004600 32 108 3.2 9.7 0.00 0.00 0.00 47 1010.9
20260901003104 33 118 4.8 9.7 0.00 0.00 0.00 45 1010.8
20260901001559 33 76 4.8 11.3 0.00 0.00 0.00 44 1010.6
20260901000057 34 123 3.2 9.7 0.00 0.00 0.00 44 1010.6
20260831234558 34 99 3.2 11.3 0.00 0.00 0.00 41 1010.5
20260831233104 34 113 4.8 12.9 0.00 0.00 0.00 41 1010.5
20260831231558 35 210 4.8 11.3 0.00 0.00 0.00 40 1010.4
20260831230110 35 91 1.6 16.1 0.00 0.00 0.00 42 1010.6
20260831224554 35 109 4.8 12.9 0.00 0.00 0.00 40 1010.6
20260831223103 35 118 4.8 17.7 0.00 0.00 0.00 42 1010.7
20260831221556 35 130 6.4 17.7 0.00 0.00 0.00 42 1010.8
20260831220048 35 143 6.4 22.5 0.00 0.00 0.00 41 1011.1
20260831214553 36 110 3.2 12.9 0.00 0.00 0.00 40 1011.2
20260831213046 35 259 4.8 9.7 0.00 0.00 0.00 40 1011.4
20260831211542 35 132 6.4 14.5 0.00 0.00 0.00 43 1011.6
20260831210039 34 122 3.2 17.7 0.00 0.00 0.00 43 1011.9
20260831204538 35 162 3.2 12.9 0.00 0.00 0.00 43 1012.1
20260831203037 34 128 4.8 16.1 0.00 0.00 0.00 44 1012.3
20260831201534 34 180 4.8 14.5 0.00 0.00 0.00 45 1012.6
20260831200031 35 98 4.8 14.5 0.00 0.00 0.00 42 1012.8
20260831194528 35 271 3.2 12.9 0.00 0.00 0.00 46 1013.1
20260831193034 34 109 6.4 12.9 0.00 0.00 0.00 43 1013.4
20260831191529 35 167 6.4 22.5 0.00 0.00 0.00 44 1013.4
20260831190025 33 251 6.4 14.5 0.00 0.00 0.00 45 1013.4
20260831184521 33 133 4.8 16.1 0.00 0.00 0.00 45 1013.7
20260831183020 33 113 8.0 22.5 0.00 0.00 0.00 46 1013.8
20260831181519 33 154 6.4 14.5 0.00 0.00 0.00 48 1014.0
20260831180020 33 177 3.2 17.7 0.00 0.00 0.00 48 1014.1
20260831174517 33 73 6.4 12.9 0.00 0.00 0.00 49 1014.2
20260831173016 32 170 4.8 16.1 0.00 0.00 0.00 50 1014.3
20260831171513 32 189 8.0 16.1 0.00 0.00 0.00 51 1014.4
20260831170008 31 234 4.8 14.5 0.00 0.00 0.00 53 1014.4
20260831164559 31 162 3.2 12.9 0.00 0.00 0.00 53 1014.4
20260831163058 31 138 6.4 17.7 0.00 0.00 0.00 54 1014.6
20260831161556 30 253 6.4 12.9 0.00 0.00 0.00 58 1014.6
20260831160052 31 142 4.8 11.3 0.00 0.00 0.00 58 1014.6
20260831154552 30 122 4.8 12.9 0.00 0.00 0.00 62 1014.6
20260831153049 29 209 8.0 16.1 0.00 0.00 0.00 64 1014.5
20260831151544 28 207 4.8 16.1 0.00 0.00 0.00 68 1014.3
20260831150041 28 166 6.4 14.5 0.00 0.00 0.00 70 1014.2
20260831144538 27 134 3.2 12.9 0.00 0.00 0.00 73 1014.3
20260831143036 27 222 3.2 14.5 0.00 0.00 0.00 77 1014.2
20260831141537 26 191 3.2 9.7 0.00 0.00 0.00 81 1014.2